Regional Weather Roundup
Issued by NWS

Home | Current Version | Previous Version | Graphics & Text | Print | Product List | Glossary On
Versions: 1 2 3 4 5 6 7 8 9 10 11 12 13 14 15 16 17 18 19 20 21 22 23 24 25 26 27
000
ASUS45 KSLC 200910
RWRUT

UTAH REGIONAL WEATHER ROUNDUP
NATIONAL WEATHER SERVICE SALT LAKE CITY UT
200 AM MST TUE FEB 20 2018

UTZ001>011-023>025-201000-

NORTHERN UTAH

CITY           SKY/WX    TMP DP  RH WIND       PRES   REMARKS
BRIGHAM CITY   CLOUDY    21   9  58 N6        29.88S WCI  14
HILL AFB       FLURRIES  19   9  63 N5        29.85R WCI  13
LOGAN          CLOUDY    20  11  68 N12       29.87R WCI   8
OGDEN          CLOUDY    20   8  60 NW12      29.85R WCI   8
SALT LAKE CITY MOCLDY    20  16  84 N8        29.88R WCI  10
TOOELE VALLEY  CLOUDY    18  12  79 NE5       29.89R WCI  11
WENDOVER       PTCLDY    19   4  51 W3        29.91R
HEBER CITY     CLOUDY    10   5  79 CALM      29.78R
WEST JORDAN    MOCLDY     9   8  99 CALM      29.87R VSB 3/4

$$

UTZ011>015-024>027-201000-

CENTRAL/NORTHEAST UTAH

CITY           SKY/WX    TMP DP  RH WIND       PRES   REMARKS
PROVO AIRPORT  LGT SNOW  21  18  88 CALM      29.87R
MOAB/CANYONLAN MOCLDY   N/A N/A N/A W16       29.77R
DELTA          MOCLDY     7   5  92 S9        29.89R WCI  -7
PRICE          PTCLDY    16   1  51 CALM      29.74R
RICHFIELD      CLOUDY    14  14 100 CALM      29.86
VERNAL         CLOUDY     9   4  80 SE5       29.83R WCI   1

$$

UTZ013>016-019>022-027-201000-

SOUTHERN UTAH

CITY           SKY/WX    TMP DP  RH WIND       PRES   REMARKS
BRYCE CANYON   MOCLDY     6   3  87 NW9       29.74R WCI  -8
CEDAR CITY       N/A    N/A N/A N/A MISG      29.84R
MILFORD        MOCLDY     8   5  87 CALM      29.87R
ST GEORGE      PTSUNNY   33  18  53 S7        29.94R WCI  27
HANKSVILLE     MOCLDY    23   3  42 NW6       29.84R WCI  16
KANAB          PTCLDY    21   9  58 NE5       29.90  WCI  15
BLANDING         N/A     23   9  53 SW8       29.84R WCI  14

$$

REGIONAL REPORTS     COLORADO/ARIZONA

CITY           SKY/WX    TMP DP  RH WIND       PRES   REMARKS
CRAIG, CO      LGT SNOW   2  -3  80 CALM      29.78R
GRAND JUNCTION CLOUDY    20  18  92 SW5       29.79R WCI  13
RIFLE, CO      MIX PCPN  14   8  77 W8        29.78R WCI   3
MONTROSE, CO   FLURRIES  21  19  92 NW7       29.77R WCI  12
CORTEZ, CO     PTCLDY    18  12  77 S12       29.79R WCI   5
COLORADO CITY    N/A     19  16  86 S3        29.89R
PAGE, AZ       CLEAR     30   4  33 W6        29.84R WCI  24
GRAND CANYON   PTCLDY    -1  -3  91 NE5       29.83R WCI -11
KINGMAN, AZ    CLEAR     25  13  60 SW3       29.94R
FLAGSTAFF, AZ  PTCLDY    17   7  64 W7        29.81R WCI   8

$$

REGIONAL REPORTS    NEVADA/IDAHO/WYOMING

CITY           SKY/WX    TMP DP  RH WIND       PRES   REMARKS
LAS VEGAS, NV  PTCLDY    40   5  23 NW14G24   29.98R WCI  32
ELY, NY        PTCLDY    -2  -7  79 S10       29.85R WCI -19
ELKO, NV       CLOUDY    16   2  54 VRB6      29.90R WCI   7
POCATELLO, ID  LGT SNOW  14   9  80 SW20      29.90R WCI  -3
BURLEY, ID     CLOUDY    12   2  64 SW15      29.91R WCI  -4
FORT BRIDGER,    N/A     -6  -9  84 N7        29.72R WCI -20
EVANSTON, WY   CLOUDY     6   2  83 SW6       29.69R WCI  -4
ROCK SPRINGS,  CLOUDY    -3  -9  75 E5        29.73R WCI -13

$$




USA.gov is the U.S. government's official web portal to all federal, state and local government web resources and services.